BAW2158 SYCJ-TLPL

Flight info

Callsign BAW2158
Flight time N/A
Altitude 34000
Route KOTEN UA632 BGI UR750 BNE
Aircraft B772/H-SDE2E3FGHIJ5LORVWXY/LB1D1

Departure

Time 2026-04-23 14:27
Airport Cheddi Jagan International Airport (SYCJ)

Arrival

Time N/A
Airport Hewanorra International Airport (TLPL)
Time Latitude Longitude Altitude Speed Heading
2026-04-23 14:17 6.50364 -58.25205 101 ft 0 kts 315°
2026-04-23 14:18 6.50363 -58.25204 101 ft 0 kts 315°
2026-04-23 14:18 6.50355 -58.25195 101 ft 2 kts 301°
2026-04-23 14:18 6.50349 -58.25182 101 ft 2 kts 278°
2026-04-23 14:18 6.50349 -58.25167 101 ft 2 kts 259°
2026-04-23 14:19 6.50354 -58.25152 100 ft 2 kts 238°
2026-04-23 14:19 6.50359 -58.25145 100 ft 0 kts 225°
2026-04-23 14:19 6.50363 -58.25141 100 ft 0 kts 225°
2026-04-23 14:23 6.50341 -58.25162 101 ft 11 kts 225°
2026-04-23 14:23 6.50260 -58.25245 101 ft 18 kts 226°
2026-04-23 14:23 6.50190 -58.25241 102 ft 14 kts 140°
2026-04-23 14:23 6.50102 -58.25180 101 ft 14 kts 198°
2026-04-23 14:24 6.49991 -58.25277 103 ft 27 kts 225°
2026-04-23 14:24 6.49829 -58.25442 106 ft 38 kts 225°
2026-04-23 14:24 6.49634 -58.25638 108 ft 38 kts 225°
2026-04-23 14:24 6.49446 -58.25826 108 ft 38 kts 225°
2026-04-23 14:25 6.49255 -58.26014 100 ft 39 kts 224°
2026-04-23 14:25 6.49051 -58.26221 84 ft 43 kts 226°
2026-04-23 14:25 6.48851 -58.26427 55 ft 24 kts 225°
2026-04-23 14:25 6.48761 -58.26488 54 ft 2 kts 236°
2026-04-23 14:26 6.48765 -58.26498 54 ft 2 kts 322°
2026-04-23 14:26 6.48777 -58.26494 54 ft 1 kts 47°
2026-04-23 14:26 6.48789 -58.26481 52 ft 2 kts 46°
2026-04-23 14:26 6.48900 -58.26369 63 ft 51 kts 45°
2026-04-23 14:27 6.49283 -58.25987 102 ft 104 kts 45°
2026-04-23 14:27 6.49933 -58.25339 104 ft 154 kts 45°
2026-04-23 14:27 6.50749 -58.24518 372 ft 167 kts 45°
2026-04-23 14:27 6.51593 -58.23701 800 ft 176 kts 44°
2026-04-23 14:28 6.52521 -58.22844 1359 ft 184 kts 44°
2026-04-23 14:28 6.53612 -58.22187 1971 ft 191 kts 12°
2026-04-23 14:28 6.54987 -58.22321 2342 ft 213 kts 345°
2026-04-23 14:28 6.56526 -58.22839 2461 ft 252 kts 342°
2026-04-23 14:29 6.58260 -58.23447 2940 ft 272 kts 342°
2026-04-23 14:29 6.60064 -58.24098 3703 ft 281 kts 341°
2026-04-23 14:29 6.61910 -58.24803 4569 ft 285 kts 341°
2026-04-23 14:29 6.63708 -58.25514 5650 ft 275 kts 340°
2026-04-23 14:30 6.65516 -58.26253 6050 ft 285 kts 340°
2026-04-23 14:30 6.67360 -58.27023 6647 ft 285 kts 339°
2026-04-23 14:30 6.69175 -58.27794 7359 ft 281 kts 339°
2026-04-23 14:30 6.70973 -58.28566 7872 ft 284 kts 339°
2026-04-23 14:31 6.72831 -58.29398 8173 ft 296 kts 338°
2026-04-23 14:31 6.74721 -58.30264 8591 ft 303 kts 339°
2026-04-23 14:31 6.76724 -58.30861 9192 ft 299 kts 350°
2026-04-23 14:31 6.78769 -58.31326 9761 ft 299 kts 349°
2026-04-23 14:32 6.80783 -58.31785 10294 ft 302 kts 350°
2026-04-23 14:32 6.82914 -58.32254 10489 ft 318 kts 351°
2026-04-23 14:32 6.85127 -58.32629 10880 ft 326 kts 354°
2026-04-23 14:32 6.87412 -58.32965 11225 ft 336 kts 353°
2026-04-23 14:33 6.89785 -58.33391 11430 ft 352 kts 351°
2026-04-23 14:33 6.92234 -58.33855 11629 ft 365 kts 351°
2026-04-23 14:33 6.94767 -58.34326 11924 ft 375 kts 351°
2026-04-23 14:33 6.97377 -58.34805 12437 ft 379 kts 351°
2026-04-23 14:34 6.99967 -58.35279 13065 ft 380 kts 351°
2026-04-23 14:34 7.02576 -58.35755 13667 ft 383 kts 351°
2026-04-23 14:34 7.05226 -58.36238 14267 ft 386 kts 351°
2026-04-23 14:34 7.07866 -58.36718 14924 ft 389 kts 352°
2026-04-23 14:35 7.10565 -58.37209 15534 ft 393 kts 351°
2026-04-23 14:35 7.13260 -58.37698 16143 ft 397 kts 351°
2026-04-23 14:35 7.16000 -58.38197 16763 ft 401 kts 352°
2026-04-23 14:35 7.18787 -58.38703 17371 ft 405 kts 351°
2026-04-23 14:36 7.21557 -58.39206 17978 ft 408 kts 352°
2026-04-23 14:36 7.24380 -58.39719 18585 ft 411 kts 352°
2026-04-23 14:36 7.27175 -58.40227 19148 ft 415 kts 351°
2026-04-23 14:36 7.30045 -58.40749 19675 ft 420 kts 352°
2026-04-23 14:37 7.32961 -58.41278 20204 ft 424 kts 351°
2026-04-23 14:37 7.35870 -58.41807 20719 ft 428 kts 351°
2026-04-23 14:37 7.38824 -58.42344 21257 ft 432 kts 351°
2026-04-23 14:37 7.41788 -58.42883 21799 ft 435 kts 351°
2026-04-23 14:38 7.44790 -58.43430 22314 ft 438 kts 351°
2026-04-23 14:38 7.47806 -58.43978 22835 ft 441 kts 351°
2026-04-23 14:38 7.50849 -58.44532 23309 ft 446 kts 351°
2026-04-23 14:38 7.53913 -58.45089 23803 ft 450 kts 351°
2026-04-23 14:39 7.57011 -58.45653 24300 ft 453 kts 351°
2026-04-23 14:39 7.60154 -58.46225 24774 ft 457 kts 351°
2026-04-23 14:39 7.63275 -58.46793 25236 ft 461 kts 351°
2026-04-23 14:39 7.66442 -58.47369 25642 ft 465 kts 351°
2026-04-23 14:40 7.69653 -58.47954 26080 ft 469 kts 351°
2026-04-23 14:40 7.72880 -58.48542 26497 ft 473 kts 350°
2026-04-23 14:40 7.76152 -58.49137 26880 ft 477 kts 351°
2026-04-23 14:40 7.79454 -58.49739 27294 ft 481 kts 350°
2026-04-23 14:41 7.82757 -58.50341 27717 ft 483 kts 351°
2026-04-23 14:41 7.86062 -58.50943 28079 ft 488 kts 350°
2026-04-23 14:41 7.89433 -58.51557 28444 ft 491 kts 350°
2026-04-23 14:41 7.92836 -58.52178 28822 ft 495 kts 350°
2026-04-23 14:42 7.96201 -58.52791 29224 ft 497 kts 350°
2026-04-23 14:42 7.99643 -58.53419 29677 ft 499 kts 350°
2026-04-23 14:42 8.03041 -58.54039 30126 ft 500 kts 350°
2026-04-23 14:42 8.06471 -58.54665 30642 ft 500 kts 350°
2026-04-23 14:43 8.09892 -58.55289 31233 ft 498 kts 350°
2026-04-23 14:43 8.13325 -58.55915 31758 ft 497 kts 350°
2026-04-23 14:43 8.16738 -58.56538 32187 ft 497 kts 350°
2026-04-23 14:43 8.20153 -58.57161 32627 ft 497 kts 350°
2026-04-23 14:44 8.23564 -58.57785 33120 ft 497 kts 350°
2026-04-23 14:44 8.26961 -58.58412 33661 ft 496 kts 350°
2026-04-23 14:44 8.30344 -58.59037 33972 ft 498 kts 351°
2026-04-23 14:44 8.33799 -58.59674 33973 ft 496 kts 350°
2026-04-23 14:45 8.40574 -58.60925 33976 ft 494 kts 350°
2026-04-23 14:45 8.47335 -58.62174 33974 ft 494 kts 350°
2026-04-23 14:46 8.54104 -58.63424 33975 ft 494 kts 350°
2026-04-23 14:46 8.60875 -58.64675 33975 ft 495 kts 350°